DW9996 Weather Reports


Display with metric or nautical units.
time (UTC)temp
F
wind
direction
speed
MPH
gust
MPH
rain 1hr
in
rain 24hr
in
rain mn
in
humidity
%
barometer
mb
20260504050014 55 36 10.0 17.0 0.00 0.00 0.00 38 1007.6
20260504044516 55 29 11.0 20.0 0.00 0.00 0.00 37 1007.1
20260504043014 56 46 13.0 27.0 0.00 0.00 0.00 36 1006.7
20260504041514 59 34 11.0 24.0 0.00 0.00 0.00 37 1006.0
20260504040013 59 16 6.0 12.0 0.00 0.00 0.00 37 1005.2
20260504034513 60 360 7.0 14.0 0.00 0.00 0.00 36 1004.8
20260504033014 60 11 7.0 14.0 0.00 0.00 0.00 36 1004.5
20260504031511 61 333 5.0 10.0 0.00 0.00 0.00 35 1004.4
20260504030011 62 73 6.0 16.0 0.00 0.00 0.00 33 1004.2
20260504024510 63 40 9.0 16.0 0.00 0.00 0.00 32 1004.0
20260504023010 64 36 9.0 14.0 0.00 0.00 0.00 29 1004.0
20260504021509 66 13 8.0 17.0 0.00 0.00 0.00 27 1003.8
20260504020009 68 338 10.0 16.0 0.00 0.00 0.00 25 1003.8
20260504014508 70 317 7.0 16.0 0.00 0.00 0.00 23 1003.7
20260504013012 71 346 6.0 12.0 0.00 0.00 0.00 22 1003.7
20260504011507 71 317 7.0 13.0 0.00 0.00 0.00 21 1003.8
20260504010006 72 321 8.0 16.0 0.00 0.00 0.00 22 1003.9
20260504004506 72 332 7.0 19.0 0.00 0.00 0.00 22 1004.0
20260504003004 73 314 7.0 16.0 0.00 0.00 0.00 21 1004.1
20260504001502 73 323 9.0 17.0 0.00 0.00 0.00 21 1004.2
20260504000002 74 323 6.0 15.0 0.00 0.00 0.00 20 1004.2
20260503234503 74 304 9.0 15.0 0.00 0.00 0.00 20 1004.2
20260503233104 74 325 8.0 16.0 0.00 0.00 0.00 20 1004.2
20260503231559 74 313 5.0 14.0 0.00 0.00 0.00 20 1004.3
20260503230100 74 300 7.0 21.0 0.00 0.00 0.00 20 1004.5
20260503224556 74 299 7.0 17.0 0.00 0.00 0.00 21 1004.6
20260503223055 74 302 9.0 15.0 0.00 0.00 0.00 20 1004.8
20260503221559 74 320 8.0 19.0 0.00 0.00 0.00 19 1005.1
20260503214549 74 290 8.0 13.0 0.00 0.00 0.00 20 1005.5
20260503213048 73 331 6.0 13.0 0.00 0.00 0.00 21 1005.6
20260503211544 74 315 9.0 15.0 0.00 0.00 0.00 21 1005.9
20260503210050 73 291 8.0 12.0 0.00 0.00 0.00 22 1006.1
20260503204557 73 306 7.0 13.0 0.00 0.00 0.00 20 1006.3
20260503203039 73 296 6.0 19.0 0.00 0.00 0.00 22 1006.3
20260503201538 72 282 8.0 14.0 0.00 0.00 0.00 20 1006.6
20260503200043 72 347 7.0 19.0 0.00 0.00 0.00 18 1006.8
20260503194534 72 300 11.0 17.0 0.00 0.00 0.00 20 1007.0
20260503193034 71 311 7.0 17.0 0.00 0.00 0.00 19 1007.2
20260503191530 73 313 7.0 14.0 0.00 0.00 0.00 21 1007.3
20260503190035 73 338 7.0 19.0 0.00 0.00 0.00 20 1007.5
20260503184528 72 329 8.0 18.0 0.00 0.00 0.00 22 1007.6
20260503183025 71 292 7.0 16.0 0.00 0.00 0.00 21 1007.9
20260503181521 72 317 6.0 17.0 0.00 0.00 0.00 21 1008.1
20260503180019 71 299 7.0 13.0 0.00 0.00 0.00 22 1008.4
20260503174517 71 307 6.0 14.0 0.00 0.00 0.00 24 1008.5
20260503173015 70 294 8.0 12.0 0.00 0.00 0.00 24 1008.7
20260503171511 69 18 3.0 13.0 0.00 0.00 0.00 25 1008.7
20260503081551 43 284 3.0 7.0 0.00 0.00 0.00 69 1012.1
20260503071540 44 284 1.0 4.0 0.00 0.00 0.00 64 1012.4
20260503054533 49 281 2.0 6.0 0.00 0.00 0.00 56 1012.7
20260503053021 51 157 1.0 2.0 0.00 0.00 0.00 52 1012.6